This demonstration page uses our WeatherBlox Daily Observations layout. Learn more.

Left ArrowRight Arrow

40.97296, -117.73568

Hourly Observations for May 18, 2022

Temp ( °F °C ) Dew Point ( °F °C ) Humidity (%) Winds ( mph kmh ) Pressure ( in mb ) Visibility ( mi km ) Precip ( " mm )
12:56 am 00:56 Clear 43 6.1 23 -5 45 45 Calm 30.07 1018 10 16 0.00 0.00
1:56 am 01:56 Clear 44 6.7 25 -3.9 47 47 W 5 7 30.06 1018 10 16 0.00 0.00
2:56 am 02:56 Clear 37 2.8 24 -4.4 59 59 SSE 5 7 30.08 1019 10 16 0.00 0.00
3:56 am 03:56 Clear 35 1.7 23 -5 61 61 SSE 6 9 30.09 1019 10 16 0.00 0.00
4:56 am 04:56 Clear 35 1.7 21 -6.1 57 57 SSE 9 15 30.09 1019 10 16 0.00 0.00
5:56 am 05:56 Sunny 37 2.8 23 -5 57 57 ESE 5 7 30.10 1019 10 16 0.00 0.00
6:56 am 06:56 Sunny 45 7.2 25 -3.9 46 46 SE 3 6 30.11 1020 10 16 0.00 0.00
7:56 am 07:56 Sunny 52 11.1 28 -2.2 40 40 Calm 30.12 1020 10 16 0.00 0.00
8:56 am 08:56 Sunny 64 17.8 32 0 30 30 Calm 30.12 1020 10 16 0.00 0.00
9:56 am 09:56 Sunny 71 21.7 29 -1.7 21 21 Calm 30.12 1020 10 16 0.00 0.00
10:56 am 10:56 Sunny 75 23.9 25 -3.9 15 15 undefined N/A 30.11 1020 10 16 0.00 0.00
11:56 am 11:56 Sunny 77 25 23 -5 13 13 VRB 5 7 30.09 1019 10 16 0.00 0.00
12:56 pm 12:56 Sunny 80 26.7 21 -6.1 11 11 SW 8 13 30.06 1018 10 16 0.00 0.00
1:56 pm 13:56 Sunny 81 27.2 21 -6.1 11 11 W 9 15 30.03 1017 10 16 0.00 0.00
2:56 pm 14:56 Sunny 83 28.3 27 -2.8 13 13 WNW 16 26 30.02 1017 10 16 0.00 0.00
3:56 pm 15:56 Sunny 83 28.3 27 -2.8 13 13 WNW 16 26 29.99 1016 10 16 0.00 0.00
4:56 pm 16:56 Sunny 83 28.3 28 -2.2 13 13 W 17 28 29.97 1015 10 16 0.00 0.00
5:56 pm 17:56 Sunny 82 27.8 29 -1.7 14 14 WNW 13 20 29.94 1014 10 16 0.00 0.00
6:56 pm 18:56 Sunny 79 26.1 29 -1.7 16 16 NW 16 26 29.94 1014 10 16 0.00 0.00
7:56 pm 19:56 Sunny 74 23.3 29 -1.7 19 19 NW 12 19 29.94 1014 10 16 0.00 0.00
8:56 pm 20:56 Clear 70 21.1 31 -0.6 23 23 NNW 10 17 29.94 1014 10 16 0.00 0.00
9:56 pm 21:56 Clear 67 19.4 33 0.6 28 28 N 6 9 29.94 1014 10 16 0.00 0.00
10:56 pm 22:56 Clear 65 18.3 35 1.7 33 33 VRB 6 9 29.94 1014 10 16 0.00 0.00
11:56 pm 23:56 Clear 62 16.7 37 2.8 40 40 SE 8 13 29.93 1014 10 16 0.00 0.00

Powered by AerisWeather